FW6288 Weather Reports


Display with metric or nautical units.
time (UTC)temp
F
wind
direction
speed
MPH
gust
MPH
rain 1hr
in
rain 24hr
in
rain mn
in
humidity
%
barometer
mb
20260508011509 49 214 4.0 7.0 0.00 1.31 1.31 98 1001.3
20260508010020 50 202 6.0 11.0 0.00 1.31 1.31 98 1001.6
20260508004505 49 197 7.0 11.0 0.00 1.31 1.31 98 1001.6
20260508003005 50 189 7.0 13.0 0.00 1.31 1.31 98 1001.8
20260508001505 50 201 10.0 15.0 0.00 1.31 1.31 98 1001.8
20260508000005 49 208 9.0 15.0 0.00 1.31 1.31 98 1001.8
20260507234505 49 357 9.0 17.0 0.00 1.31 1.31 98 1001.8
20260507233001 50 212 7.0 14.0 0.00 1.31 1.31 98 1002.0
20260507231501 50 199 8.0 15.0 0.00 1.31 1.31 98 1001.9
20260507230104 50 197 12.0 18.0 0.00 1.31 1.31 98 1002.0
20260507224558 50 209 11.0 16.0 0.00 1.31 1.31 98 1001.8
20260507223103 50 185 8.0 12.0 0.00 1.31 1.31 97 1002.4
20260507221601 50 199 9.0 12.0 0.00 1.31 1.31 97 1002.5
20260507220054 50 195 8.0 14.0 0.00 1.31 1.31 97 1002.6
20260507214551 50 357 8.0 15.0 0.02 1.31 1.31 97 1002.5
20260507213050 50 238 1.0 5.0 0.03 1.31 1.31 97 1002.4
20260507211557 50 229 4.0 8.0 0.07 1.31 1.31 97 1002.1
20260507210049 50 191 5.0 14.0 0.13 1.31 1.31 98 1001.5
20260507204542 50 231 2.0 11.0 0.23 1.29 1.29 97 1001.9
20260507203039 49 202 6.0 10.0 0.34 1.28 1.28 98 1002.5
20260507201537 49 221 3.0 8.0 0.46 1.24 1.24 97 1002.9
20260507200036 49 206 7.0 10.0 0.52 1.17 1.17 97 1003.5
20260507194531 49 190 3.0 6.0 0.54 1.06 1.06 96 1004.2
20260507193030 51 208 8.0 20.0 0.50 0.93 0.93 95 1004.5
20260507191528 51 211 15.0 26.0 0.50 0.77 0.77 97 1004.4
20260507190024 51 181 12.0 21.0 0.43 0.65 0.65 97 1004.4
20260507184520 52 202 11.0 18.0 0.31 0.51 0.51 97 1004.7
20260507183022 52 197 12.0 20.0 0.22 0.43 0.43 96 1005.0
20260507181518 52 260 6.0 12.0 0.07 0.27 0.27 94 1004.4
20260507180017 56 247 7.0 22.0 0.02 0.21 0.21 94 1004.2
20260507174538 55 231 13.0 28.0 0.02 0.20 0.20 96 1003.9
20260507173021 52 187 8.0 17.0 0.02 0.20 0.20 96 1004.2
20260507171511 52 233 10.0 16.0 0.01 0.20 0.20 95 1004.5
20260507170010 51 208 12.0 18.0 0.01 0.20 0.20 95 1005.1
20260507164507 51 210 7.0 11.0 0.00 0.19 0.19 94 1005.4
20260507163005 52 357 13.0 18.0 0.00 0.19 0.19 94 1005.7
20260507161502 53 196 12.0 20.0 0.00 0.19 0.19 94 1006.3
20260507160003 53 191 11.0 16.0 0.00 0.19 0.19 94 1006.6
20260507154559 54 205 10.0 20.0 0.00 0.19 0.19 91 1007.1
20260507153058 55 357 12.0 25.0 0.00 0.19 0.19 91 1007.2
20260507151600 56 357 12.0 25.0 0.00 0.19 0.19 91 1007.7
20260507150055 56 357 17.0 27.0 0.00 0.19 0.19 93 1007.8
20260507144553 54 357 12.0 20.0 0.00 0.19 0.19 91 1008.0
20260507143058 56 357 17.0 30.0 0.00 0.19 0.19 92 1008.3
20260507141548 56 175 18.0 30.0 0.00 0.19 0.19 92 1008.7
20260507140057 56 357 19.0 31.0 0.00 0.19 0.19 93 1008.9
20260507134546 55 357 15.0 26.0 0.00 0.19 0.19 94 1009.0
20260507133045 55 357 11.0 28.0 0.00 0.19 0.19 95 1009.2
20260507131610 54 357 10.0 15.0 0.00 0.19 0.19 95 1009.2
20260507130045 54 357 9.0 24.0 0.00 0.19 0.19 93 1009.4
20260507124551 56 185 7.0 20.0 0.02 0.19 0.19 94 1009.0
20260507123044 56 209 13.0 25.0 0.03 0.19 0.19 95 1009.4
20260507121536 55 357 18.0 28.0 0.08 0.19 0.19 95 1009.3
20260507120038 54 357 19.0 28.0 0.09 0.19 0.19 96 1009.9
20260507114529 53 357 14.0 29.0 0.11 0.17 0.17 97 1010.7
20260507113058 53 167 16.0 33.0 0.10 0.16 0.16 98 1010.7
20260507111526 52 357 11.0 25.0 0.06 0.11 0.11 98 1011.0
20260507110023 51 357 8.0 18.0 0.05 0.09 0.09 98 1010.8
20260507104521 51 207 8.0 11.0 0.02 0.06 0.06 98 1011.0
20260507103020 51 185 10.0 16.0 0.01 0.06 0.06 98 1011.4
20260507101524 51 193 8.0 14.0 0.01 0.05 0.05 98 1011.9
20260507100030 51 357 10.0 15.0 0.01 0.05 0.05 98 1011.4
20260507094515 51 179 7.0 15.0 0.01 0.05 0.05 98 1011.9
20260507093014 50 357 11.0 16.0 0.01 0.05 0.05 98 1012.0
20260507091516 49 252 2.0 7.0 0.00 0.04 0.04 98 1012.2
20260507090013 49 203 4.0 10.0 0.00 0.04 0.04 98 1011.9
20260507084528 49 182 9.0 13.0 0.01 0.04 0.04 97 1011.7
20260507083019 50 226 5.0 10.0 0.01 0.04 0.04 98 1012.0
20260507081507 50 199 8.0 14.0 0.01 0.04 0.04 98 1012.3
20260507080006 50 192 3.0 10.0 0.03 0.04 0.04 98 1012.4
20260507074504 50 204 7.0 19.0 0.03 0.03 0.03 98 1012.6
20260507073001 50 231 10.0 13.0 0.03 0.03 0.03 98 1012.9
20260507071600 49 206 6.0 10.0 0.03 0.03 0.03 98 1013.1
20260507070108 49 198 6.0 9.0 0.01 0.01 0.01 97 1013.2
20260507064559 50 198 7.0 11.0 0.00 0.00 0.00 98 1013.5
20260507063056 50 195 8.0 11.0 0.00 0.00 0.00 98 1013.7
20260507061553 50 179 7.0 14.0 0.00 0.00 0.00 97 1013.9
20260507060051 50 357 7.0 16.0 0.00 0.00 0.00 97 1014.2
20260507054549 50 357 9.0 15.0 0.00 0.00 0.00 97 1014.4
20260507053047 50 214 11.0 17.0 0.00 0.00 0.00 97 1014.5
20260507051546 51 209 13.0 19.0 0.00 0.00 0.00 97 1014.8
20260507044550 50 357 11.0 17.0 0.00 0.00 0.00 97 1015.4
20260507043037 50 357 8.0 12.0 0.00 0.00 0.00 97 1015.7
20260507041535 50 357 11.0 19.0 0.00 0.00 0.00 97 1016.0
20260507040034 49 225 10.0 15.0 0.00 0.00 0.00 96 1016.2
20260507034536 49 357 8.0 21.0 0.00 0.00 0.00 96 1016.5
20260507033037 49 199 9.0 19.0 0.00 0.00 0.00 96 1016.6
20260507031532 49 204 10.0 19.0 0.00 0.00 0.00 96 1016.7
20260507030031 50 212 14.0 22.0 0.00 0.00 0.00 96 1016.8
20260507024521 50 357 15.0 22.0 0.00 0.00 0.00 96 1017.0
20260507023021 50 190 16.0 24.0 0.00 0.00 0.00 96 1017.1
20260507021536 50 357 15.0 23.0 0.00 0.00 0.00 95 1017.3
20260507020024 51 357 14.0 26.0 0.00 0.00 0.00 94 1017.3
20260507014521 51 357 15.0 24.0 0.00 0.00 0.00 93 1017.4
20260507013017 51 357 14.0 24.0 0.00 0.00 0.00 92 1017.6